Location: Invercargill
(46.4000°S, 168.3500°E)
Time: 17:36:58
(UTC+12:00)

SL-8 R/B - Pass Details

Date: 14 May 2021
Orbit: 656 x 667 km, 48.4° (Epoch: 14 June)

Event Time Altitude Azimuth Distance (km) Brightness Sun altitude
Rises 18:28:35 0° 318° (NW) 3,007 8.1 -11.0°
Reaches altitude 10° 18:31:02 10° 326° (NW) 2,099 7.1 -11.4°
Maximum altitude 18:35:32 39° 33° (NNE) 1,008 4.5 -12.2°
Enters shadow 18:38:41 18° 93° (E) 1,636 5.1 -12.7°
